Terminal Aerodrome Forecast
Issued by NWS

Home | Current Version | Previous Version | Text Only | Print | Product List | Glossary On
Versions: 1 2 3 4 5 6 7 8 9 10 11 12 13 14 15 16 17
000
FTUS43 KGRB 242100 AAA
TAFATW
TAF AMD
KATW 242150Z 2422/2518 09012KT 6SM -RA BR SCT025 OVC050
      TEMPO 2422/2502 4SM -RA BR OVC025
     FM250200 10009KT 5SM -SHRA BR SCT015 OVC025
     FM250500 16008KT 4SM -SHRA BR SCT008 OVC015
     FM251300 28012KT P6SM SCT015 SCT025
      TEMPO 2516/2518 BKN025=

USA.gov is the U.S. government's official web portal to all federal, state and local government web resources and services.